Regional Weather Roundup
Issued by NWS

Home | Current Version | Previous Version | Graphics & Text | Print | Product List | Glossary On
Versions: 1 2 3 4 5 6 7 8 9 10 11 12 13 14 15 16 17 18 19 20 21 22 23 24 25 26 27 28 29 30 31 32 33 34 35 36 37 38 39 40 41 42 43 44 45 46 47 48 49 50
000
ASUS43 KIND 230059
RWRIN

WEATHER ROUNDUP FOR INDIANA
NATIONAL WEATHER SERVICE INDIANAPOLIS IN
900 PM EDT FRI AUG 22 2014

NOTE: "FAIR" INDICATES FEW OR NO CLOUDS BELOW 12,000 FEET WITH NO
SIGNIFICANT WEATHER AND/OR OBSTRUCTIONS TO VISIBILITY.

* - STATION DOES NOT REPORT WEATHER SUCH AS PRECIPITATION OR FOG.

+ - STATION NOT QUALITY CONTROLLED BY THE NATIONAL WEATHER SERVICE.
    USE DATA WITH CAUTION...ESPECIALLY DEWPOINT AND RELATIVE
    HUMIDITY OBSERVATIONS.

INZ001>003-010>013-019-020-230200-
NORTHWEST INDIANA

CITY           SKY/WX    TMP DP  RH WIND       PRES   REMARKS
GARY /AIRPORT/ CLOUDY    81  73  78 CALM      29.96R
KNOX *+        MOCLDY    77  71  84 CALM      29.96S
MONTICELLO +   CLOUDY    78  75  90 SW3       29.96S
VALPARAISO     PTCLDY    76  72  87 W3        29.98R

$$

LMZ046-743>745-230200-
SOUTHERN LAKE MICHIGAN

STATION/POSITION TIME  TEMP WIND        PRES
                       AIR  DIR/SP/G
                 (UTC) (F)  (DEG/KT/KT) (MB)
MICHIGAN CITY    0000   78   20/  5/  5   N/A

$$

INZ004-005-014>016-021>024-230200-
NORTH CENTRAL INDIANA

CITY           SKY/WX    TMP DP  RH WIND       PRES   REMARKS
ELKHART        CLOUDY    81  73  78 CALM      29.97R
GOSHEN         LGT RAIN  80  74  81 NW5       29.97R
PERU/GRISSOM   MOCLDY    77  77 100 W5        29.98R
SOUTH BEND     CLOUDY    81  74  79 W3        29.97R
WARSAW +       PTCLDY    77  73  88 W3        29.97S

$$

INZ006>009-017-018-025>027-230200-
NORTHEAST INDIANA

CITY           SKY/WX    TMP DP  RH WIND       PRES   REMARKS
ANGOLA *+      CLOUDY    79  72  78 CALM      29.98R
FORT WAYNE     MOCLDY    75  72  90 W6        29.98R

$$

INZ028-029-035-036-043>045-051>053-230200-
WEST CENTRAL INDIANA

CITY           SKY/WX    TMP DP  RH WIND       PRES   REMARKS
GREENCASTLE +  MOCLDY    77  73  88 CALM      29.99R
LAFAYETTE      CLEAR     77  73  87 CALM      29.96F
TERRE HAUTE    MOCLDY    78  75  90 CALM      29.97R

$$

INZ030>032-037>040-046>048-054>057-064-065-230200-
CENTRAL INDIANA

CITY           SKY/WX    TMP DP  RH WIND       PRES   REMARKS
FRANKFORT +    MOCLDY    76  76 100 W5        30.00S
INDIANAPOLIS   MOCLDY    79  69  71 NW5       29.98R
-EAGLE CREEK   PTCLDY    79  70  74 CALM      29.98R
KOKOMO *+      PTCLDY    77  72  83 NW3       29.98R
MT COMFORT *+  PTCLDY    77  72  83 CALM      30.00R
SHELBYVILLE    PTCLDY    78  73  84 CALM      29.98R

$$

INZ033-034-041-042-049-050-058-059-230200-
EAST CENTRAL INDIANA

CITY           SKY/WX    TMP DP  RH WIND       PRES   REMARKS
MUNCIE         CLOUDY    77  72  84 W3        29.98R

$$

INZ060-061-067>069-081>083-085>088-230200-
SOUTHWEST INDIANA

CITY           SKY/WX    TMP DP  RH WIND       PRES   REMARKS
EVANSVILLE     MOCLDY    84  76  76 CALM      29.96S

$$

INZ062-063-066-070>080-084-089>092-230200-
SOUTH CENTRAL AND SOUTHEAST INDIANA

CITY           SKY/WX    TMP DP  RH WIND       PRES   REMARKS
BLOOMINGTON    CLOUDY    78  74  87 CALM      29.99R

$$




USA.gov is the U.S. government's official web portal to all federal, state and local government web resources and services.